When you browse on this site, cookies collect data to enhance your experience and personalize the content and advertising you see.
Visit our Privacy Policy to learn more. By continuing to use the site, you agree to this use of cookies and data.
  • In Hungary
  • List of Countries
  • For 7 days
  • Water Temperature
  • Weather Map
  • News
  • Weather Widgets
  • user-avatar
    Login

    Hourly Weather Nottingham

    Today, 3 June, Wednesday

    Time Temperature Precipitation Wind Pressure Humidity
    00:00 +14°C° 0 mm 1 mps 754 mmHg 85%
    01:00 +14°C° 0 mm 1 mps 753 mmHg 85%
    02:00 +13°C° 0 mm 1 mps 753 mmHg 85%
    03:00 +13°C° 0 mm 1 mps 752 mmHg 85%
    04:00 +13°C° 0.1 mm 1 mps 752 mmHg 84%
    05:00 +13°C° 0.1 mm 2 mps 752 mmHg 83%
    06:00 +13°C° 0 mm 3 mps 752 mmHg 85%
    07:00 +13°C° 0.8 mm 3 mps 752 mmHg 87%
    08:00 +12°C° 0.8 mm 3 mps 752 mmHg 89%
    09:00 +12°C° 0.8 mm 4 mps 752 mmHg 90%
    10:00 +12°C° 0.4 mm 4 mps 752 mmHg 90%
    11:00 +12°C° 0.4 mm 5 mps 752 mmHg 90%
    12:00 +13°C° 0.4 mm 5 mps 752 mmHg 90%
    13:00 +12°C° 0.2 mm 5 mps 752 mmHg 90%
    14:00 +11°C° 0.2 mm 6 mps 752 mmHg 90%
    15:00 +11°C° 0.2 mm 6 mps 751 mmHg 89%
    16:00 +10°C° 0 mm 6 mps 751 mmHg 88%
    17:00 +10°C° 0 mm 6 mps 751 mmHg 86%
    18:00 +10°C° 0 mm 6 mps 751 mmHg 85%
    19:00 +9°C° 0 mm 5 mps 751 mmHg 84%
    20:00 +10°C° 0 mm 4 mps 751 mmHg 82%
    21:00 +10°C° 0 mm 4 mps 751 mmHg 81%
    22:00 +8°C° 0 mm 4 mps 751 mmHg 84%
    23:00 +8°C° 0 mm 4 mps 751 mmHg 86%

    Tomorrow, 4 June, Thursday

    Time Temperature Precipitation Wind Pressure Humidity
    00:00 +7°C° 0 mm 4 mps 750 mmHg 89%
    01:00 +7°C° 0 mm 4 mps 750 mmHg 88%
    02:00 +7°C° 0 mm 5 mps 749 mmHg 88%
    03:00 +7°C° 0 mm 5 mps 749 mmHg 87%
    04:00 +8°C° 0.1 mm 5 mps 749 mmHg 85%
    05:00 +8°C° 0.1 mm 5 mps 749 mmHg 84%
    06:00 +8°C° 0.1 mm 5 mps 748 mmHg 82%
    07:00 +9°C° 0 mm 5 mps 748 mmHg 76%
    08:00 +10°C° 0 mm 5 mps 748 mmHg 70%
    09:00 +12°C° 0 mm 5 mps 748 mmHg 64%
    10:00 +13°C° 0 mm 5 mps 748 mmHg 61%
    11:00 +13°C° 0 mm 4 mps 747 mmHg 57%
    12:00 +14°C° 0 mm 4 mps 747 mmHg 54%
    13:00 +14°C° 0 mm 4 mps 747 mmHg 55%
    14:00 +14°C° 0 mm 4 mps 746 mmHg 57%
    15:00 +14°C° 0 mm 4 mps 746 mmHg 58%
    16:00 +14°C° 0.1 mm 3 mps 746 mmHg 61%
    17:00 +13°C° 0.1 mm 3 mps 745 mmHg 65%
    18:00 +13°C° 0.1 mm 3 mps 745 mmHg 68%
    19:00 +12°C° 0.3 mm 3 mps 745 mmHg 76%
    20:00 +11°C° 0.3 mm 3 mps 745 mmHg 83%
    21:00 +9°C° 0.3 mm 3 mps 744 mmHg 90%
    22:00 +9°C° 0.2 mm 3 mps 744 mmHg 91%
    23:00 +7°C° 0.2 mm 4 mps 743 mmHg 92%

    Day after tomorrow, 5 June, Friday

    Time Temperature Precipitation Wind Pressure Humidity
    00:00 +7°C° 0.2 mm 4 mps 743 mmHg 93%
    01:00 +7°C° 0 mm 4 mps 743 mmHg 93%
    02:00 +6°C° 0 mm 4 mps 742 mmHg 92%
    03:00 +6°C° 0 mm 5 mps 742 mmHg 92%
    04:00 +7°C° 0.1 mm 5 mps 742 mmHg 92%
    05:00 +7°C° 0.1 mm 4 mps 742 mmHg 91%
    06:00 +7°C° 0.1 mm 4 mps 742 mmHg 91%
    07:00 +8°C° 0.2 mm 4 mps 742 mmHg 86%
    08:00 +10°C° 0.2 mm 3 mps 742 mmHg 81%
    09:00 +11°C° 0.2 mm 3 mps 742 mmHg 77%
    10:00 +12°C° 0.4 mm 4 mps 742 mmHg 72%
    11:00 +12°C° 0.4 mm 5 mps 742 mmHg 67%
    12:00 +13°C° 0.4 mm 6 mps 741 mmHg 62%
    13:00 +14°C° 0.2 mm 7 mps 741 mmHg 58%
    14:00 +13°C° 0.2 mm 8 mps 741 mmHg 55%
    15:00 +13°C° 0.2 mm 9 mps 741 mmHg 51%
    16:00 +12°C° 0 mm 8 mps 741 mmHg 54%
    17:00 +11°C° 0 mm 8 mps 741 mmHg 57%
    18:00 +11°C° 0 mm 8 mps 741 mmHg 60%
    19:00 +9°C° 0 mm 7 mps 741 mmHg 62%
    20:00 +8°C° 0 mm 6 mps 742 mmHg 64%
    21:00 +7°C° 0 mm 6 mps 742 mmHg 66%
    22:00 +7°C° 0 mm 6 mps 742 mmHg 67%
    23:00 +5°C° 0 mm 6 mps 742 mmHg 67%

    6 June, Saturday

    Time Temperature Precipitation Wind Pressure Humidity
    00:00 +5°C° 0 mm 6 mps 742 mmHg 68%
    01:00 +5°C° 0 mm 6 mps 742 mmHg 69%
    02:00 +5°C° 0 mm 7 mps 742 mmHg 70%
    03:00 +4°C° 0 mm 7 mps 742 mmHg 71%
    04:00 +5°C° 0 mm 8 mps 742 mmHg 72%
    05:00 +5°C° 0 mm 9 mps 741 mmHg 73%
    06:00 +6°C° 0 mm 10 mps 741 mmHg 73%
    07:00 +6°C° 0.2 mm 10 mps 741 mmHg 76%
    08:00 +6°C° 0.2 mm 10 mps 741 mmHg 79%
    09:00 +6°C° 0.2 mm 10 mps 741 mmHg 82%
    10:00 +6°C° 0.4 mm 10 mps 741 mmHg 84%
    11:00 +6°C° 0.4 mm 10 mps 741 mmHg 86%
    12:00 +6°C° 0.4 mm 10 mps 741 mmHg 88%
    13:00 +6°C° 0.4 mm 10 mps 741 mmHg 89%
    14:00 +7°C° 0.4 mm 9 mps 742 mmHg 89%
    15:00 +7°C° 0.4 mm 9 mps 742 mmHg 90%
    16:00 +7°C° 0.1 mm 9 mps 742 mmHg 89%
    17:00 +9°C° 0.1 mm 8 mps 742 mmHg 88%
    18:00 +9°C° 0.1 mm 8 mps 742 mmHg 87%
    19:00 +9°C° 0.4 mm 8 mps 742 mmHg 88%
    20:00 +9°C° 0.4 mm 7 mps 742 mmHg 90%
    21:00 +8°C° 0.4 mm 7 mps 743 mmHg 91%
    22:00 +8°C° 0.1 mm 6 mps 743 mmHg 92%
    23:00 +8°C° 0.1 mm 5 mps 743 mmHg 93%

    7 June, Sunday

    Time Temperature Precipitation Wind Pressure Humidity
    00:00 +8°C° 0.1 mm 4 mps 743 mmHg 94%
    01:00 +7°C° 0 mm 4 mps 744 mmHg 94%
    02:00 +8°C° 0 mm 3 mps 744 mmHg 93%
    03:00 +7°C° 0 mm 3 mps 744 mmHg 93%
    04:00 +8°C° 0 mm 3 mps 745 mmHg 91%
    05:00 +9°C° 0 mm 3 mps 745 mmHg 89%
    06:00 +10°C° 0 mm 4 mps 746 mmHg 86%
    07:00 +11°C° 0.1 mm 4 mps 746 mmHg 82%
    08:00 +13°C° 0.1 mm 5 mps 746 mmHg 78%
    09:00 +14°C° 0.1 mm 6 mps 747 mmHg 74%
    10:00 +14°C° 0.5 mm 6 mps 747 mmHg 76%
    11:00 +13°C° 0.5 mm 6 mps 747 mmHg 79%
    12:00 +13°C° 0.5 mm 6 mps 747 mmHg 82%
    13:00 +13°C° 0.5 mm 5 mps 747 mmHg 85%
    14:00 +12°C° 0.5 mm 5 mps 747 mmHg 87%
    15:00 +12°C° 0.5 mm 4 mps 747 mmHg 90%
    16:00 +12°C° 0.3 mm 4 mps 748 mmHg 91%
    17:00 +12°C° 0.3 mm 4 mps 748 mmHg 91%
    18:00 +11°C° 0.3 mm 4 mps 748 mmHg 92%
    19:00 +11°C° 0.5 mm 4 mps 748 mmHg 92%
    20:00 +11°C° 0.5 mm 4 mps 749 mmHg 93%
    21:00 +10°C° 0.5 mm 5 mps 749 mmHg 94%
    22:00 +10°C° 0.1 mm 5 mps 750 mmHg 93%
    23:00 +10°C° 0.1 mm 5 mps 750 mmHg 92%

    8 June, Monday

    Time Temperature Precipitation Wind Pressure Humidity
    00:00 +11°C° 0.1 mm 4 mps 750 mmHg 92%
    01:00 +10°C° 0 mm 4 mps 750 mmHg 91%
    02:00 +10°C° 0 mm 4 mps 750 mmHg 91%
    03:00 +10°C° 0 mm 4 mps 751 mmHg 91%
    04:00 +10°C° 0 mm 4 mps 751 mmHg 90%
    05:00 +9°C° 0 mm 5 mps 751 mmHg 90%
    06:00 +10°C° 0 mm 5 mps 752 mmHg 89%
    07:00 +12°C° 0 mm 5 mps 752 mmHg 86%
    08:00 +12°C° 0 mm 5 mps 752 mmHg 82%
    09:00 +13°C° 0 mm 5 mps 753 mmHg 79%
    10:00 +14°C° 0.1 mm 6 mps 753 mmHg 76%
    11:00 +15°C° 0.1 mm 6 mps 753 mmHg 73%
    12:00 +16°C° 0.1 mm 6 mps 753 mmHg 71%
    13:00 +16°C° 0.2 mm 6 mps 753 mmHg 71%
    14:00 +16°C° 0.2 mm 7 mps 753 mmHg 71%
    15:00 +16°C° 0.2 mm 7 mps 753 mmHg 71%
    16:00 +16°C° 0.1 mm 7 mps 753 mmHg 73%
    17:00 +15°C° 0.1 mm 6 mps 754 mmHg 74%
    18:00 +15°C° 0.1 mm 6 mps 754 mmHg 75%
    19:00 +13°C° 0 mm 6 mps 754 mmHg 79%
    20:00 +12°C° 0 mm 5 mps 755 mmHg 82%
    21:00 +11°C° 0 mm 4 mps 755 mmHg 85%
    22:00 +11°C° 0 mm 4 mps 756 mmHg 87%
    23:00 +11°C° 0 mm 4 mps 756 mmHg 89%
    Show more